loading
|
DECAYED
Showing default

MISR-A-1, 56971 (Decayed)

Orbit data source: Space-Track

MISR-A-1, 56971 was a payload satellite owned by SOCOM (US) in LEO that was launched on Mon, 12 Jun 2023 UTC via an FALCON 9 launch vehicle from the Air Force Western Test Range (AFWTR). Payloads include a variety of satellites, spacecraft, and rockets equipped with specific instruments for various scientific and technological missions. These include communications satellites like Starlink; space stations such as the ISS; scientific satellites like the Hubble; Earth observation satellites from companies like Planet Labs, Umbra, and HawkEye 360; GPS; miniature CubeSats for education and research; and military/defense satellites.

Next visibility unknown
Next conjunction unknown
No 3D visualization available: RSO Decayed
MISR-A-1 details
Identifier
56971, 2023-084AR
Orbit
Decayed
Last TLE update2 weeks ago
Origin
Flag of USSOCOM (US)
ManufacturerLANL?
MissionDecayed Defense Imaging
Bus & MotorCUBESAT 6U?, Unknown motor
Mass10 kg wet, 10 kg dry
Launch date (UTC)
2023-06-12 (1 year ago)
Launch vehicle
FALCON 9
Launch site
Air Force Western Test Range (AFWTR)
Object type
Payload
Rocket body
Debris
Shape & HBRBox, 0.3 m
Radar Cross Section0.080 m², Medium (>0.1 m² and < 1m²)

Expand to show TLE details & history

TLE from 2 weeks ago
0 MISR-A-1
1 56971U 23084AR  24276.21775553  .18793718  26502-5  25810-3 0  9994
2 56971  97.4935  45.9820 0012238 273.2472  86.7431 16.48493632 73148
Epoch: 2024-10-02T05:13Z
Definitive object data (Epoch: 2024-10-02T05:13:34.077Z)
Latitude-0.00009°
Longitude-43.83026°
Altitude146.121 km
Speed7.819 km/s
True Right ascension03h 03m 55s
True Declination0° 00' 00"
Sunlit
Object was in full shadow at TLE epoch
Predictive object data (real-time)
LatitudeUnknown
LongitudeUnknown
AltitudeUnknown
SpeedUnknown
Apparent Right ascensionUnknown
Apparent DeclinationUnknown
SunlitUnknown
Predictive observer data (real-time)
Local Sidereal Time10:29:43
AzimuthUnknown
ElevationUnknown
Doppler factorUnknown
Orbital elements
Apogee148.083 km
Perigee132.129 km
Semi-major axis6,518.243 km
Eccentricity0.0012238
Inclination97.4935°
RAAN45.982°
Arg. of periapsis273.2472°
True anomaly86.88312°
Mean anomaly86.7431°
Eccentric anomaly86.81311°
Mean motion4.12427 °/min
BSTAR0.0002581
Period87.29 mins
No data available

MISR-A-1 Visibility forecast

Observer location: 39.9160978°, -105.1181434

This satellite is decayed
Span
Click to sort rows by Start time (UTC) header in descending order
Start Az.
Max El. time (UTC)
Max El. Az.
Max El.
End time (UTC)
End Az.